WKT14 EGNE-EGNE

Flight info

Callsign WKT14
Flight time 1h 30m
Altitude FL055
Route PICKERING
Aircraft DA62/L-SGW/SB1B2

Departure

Time 2026-05-04 14:25
Airport Retford Gamston Airport (EGNE)

Arrival

Time 2026-05-04 15:55
Airport Retford Gamston Airport (EGNE)
Time Latitude Longitude Altitude Speed Heading
2026-05-04 14:12 53.27895 -0.95108 92 ft 0 kts 23°
2026-05-04 14:24 53.27928 -0.95123 92 ft 6 kts 302°
2026-05-04 14:24 53.27941 -0.95183 93 ft 9 kts 297°
2026-05-04 14:24 53.28062 -0.95138 93 ft 47 kts 23°
2026-05-04 14:24 53.28507 -0.94797 144 ft 84 kts 24°
2026-05-04 14:25 53.29047 -0.94404 434 ft 84 kts 25°
2026-05-04 14:25 53.30247 -0.94168 970 ft 91 kts
2026-05-04 14:25 53.30874 -0.94041 1299 ft 92 kts
2026-05-04 14:26 53.31502 -0.93912 1630 ft 92 kts
2026-05-04 14:26 53.32126 -0.93783 1958 ft 92 kts
2026-05-04 14:26 53.32755 -0.93652 2286 ft 92 kts
2026-05-04 14:26 53.33397 -0.93519 2624 ft 93 kts
2026-05-04 14:27 53.34032 -0.93390 2949 ft 93 kts
2026-05-04 14:27 53.34670 -0.93257 3270 ft 94 kts
2026-05-04 14:27 53.35311 -0.93124 3565 ft 94 kts
2026-05-04 14:27 53.35959 -0.92990 3842 ft 96 kts
2026-05-04 14:28 53.36620 -0.92854 4127 ft 97 kts
2026-05-04 14:28 53.37285 -0.92716 4417 ft 97 kts
2026-05-04 14:28 53.37945 -0.92580 4699 ft 98 kts
2026-05-04 14:28 53.38621 -0.92440 4968 ft 102 kts
2026-05-04 14:29 53.40293 -0.92101 5048 ft 140 kts
2026-05-04 14:29 53.42367 -0.91668 5038 ft 156 kts
2026-05-04 14:30 53.43444 -0.91443 5034 ft 158 kts
2026-05-04 14:30 53.44539 -0.91214 5034 ft 158 kts
2026-05-04 14:30 53.46716 -0.90760 5033 ft 159 kts
2026-05-04 14:31 53.47810 -0.90532 5033 ft 159 kts
2026-05-04 14:31 53.50000 -0.90076 5035 ft 160 kts
2026-05-04 14:32 53.52211 -0.89617 5036 ft 160 kts
2026-05-04 14:32 53.53312 -0.89387 5036 ft 160 kts
2026-05-04 14:32 53.54413 -0.89158 5034 ft 160 kts
2026-05-04 14:32 53.55510 -0.88928 5033 ft 160 kts
2026-05-04 14:33 53.56609 -0.88697 5035 ft 159 kts
2026-05-04 14:33 53.57708 -0.88468 5035 ft 160 kts
2026-05-04 14:33 53.58762 -0.88246 5034 ft 160 kts
2026-05-04 14:33 53.59885 -0.88013 5033 ft 160 kts
2026-05-04 14:34 53.60984 -0.87783 5036 ft 160 kts
2026-05-04 14:34 53.62088 -0.87553 5035 ft 161 kts
2026-05-04 14:34 53.63193 -0.87320 5035 ft 161 kts
2026-05-04 14:34 53.64301 -0.87089 5034 ft 161 kts
2026-05-04 14:35 53.65407 -0.86857 5034 ft 161 kts
2026-05-04 14:35 53.66512 -0.86626 5034 ft 160 kts
2026-05-04 14:35 53.67605 -0.86396 5032 ft 160 kts
2026-05-04 14:35 53.68704 -0.86164 5032 ft 160 kts
2026-05-04 14:36 53.69804 -0.85934 5032 ft 160 kts
2026-05-04 14:36 53.70899 -0.85702 5033 ft 160 kts
2026-05-04 14:36 53.71987 -0.85474 5034 ft 160 kts
2026-05-04 14:36 53.73086 -0.85242 5035 ft 160 kts
2026-05-04 14:37 53.74185 -0.85011 5033 ft 160 kts
2026-05-04 14:37 53.75295 -0.84776 5031 ft 161 kts
2026-05-04 14:37 53.76401 -0.84544 5030 ft 161 kts
2026-05-04 14:37 53.77507 -0.84311 5032 ft 161 kts
2026-05-04 14:38 53.78614 -0.84079 5033 ft 161 kts
2026-05-04 14:38 53.79723 -0.83847 5033 ft 161 kts
2026-05-04 14:38 53.80812 -0.83617 5033 ft 161 kts
2026-05-04 14:38 53.81923 -0.83382 5030 ft 161 kts
2026-05-04 14:39 53.83037 -0.83147 5030 ft 161 kts
2026-05-04 14:39 53.84137 -0.82915 5028 ft 160 kts
2026-05-04 14:39 53.85238 -0.82681 5028 ft 160 kts
2026-05-04 14:40 53.87433 -0.82215 5029 ft 160 kts
2026-05-04 14:40 53.88536 -0.81981 5029 ft 161 kts
2026-05-04 14:40 53.89628 -0.81749 5030 ft 161 kts
2026-05-04 14:40 53.90746 -0.81512 5026 ft 162 kts
2026-05-04 14:41 53.91863 -0.81275 5021 ft 162 kts
2026-05-04 14:41 53.92974 -0.81038 5017 ft 162 kts
2026-05-04 14:41 53.95200 -0.80567 5011 ft 162 kts
2026-05-04 14:42 53.97420 -0.80093 5008 ft 161 kts
2026-05-04 14:42 53.98535 -0.79857 5008 ft 161 kts
2026-05-04 14:42 53.99638 -0.79620 5007 ft 161 kts
2026-05-04 14:43 54.00741 -0.79386 5005 ft 160 kts
2026-05-04 14:43 54.01844 -0.79151 5007 ft 160 kts
2026-05-04 14:43 54.02928 -0.78918 5011 ft 160 kts
2026-05-04 14:43 54.04031 -0.78680 5007 ft 160 kts
2026-05-04 14:44 54.05136 -0.78444 5004 ft 160 kts
2026-05-04 14:44 54.06244 -0.78207 5004 ft 161 kts
2026-05-04 14:44 54.07351 -0.77971 5005 ft 161 kts
2026-05-04 14:44 54.08459 -0.77733 5007 ft 161 kts
2026-05-04 14:45 54.09568 -0.77496 5010 ft 162 kts
2026-05-04 14:45 54.10683 -0.77258 5011 ft 162 kts
2026-05-04 14:45 54.11757 -0.77028 5009 ft 161 kts
2026-05-04 14:45 54.12856 -0.76793 5005 ft 161 kts
2026-05-04 14:46 54.13974 -0.76552 5005 ft 161 kts
2026-05-04 14:46 54.15056 -0.76322 5005 ft 160 kts
2026-05-04 14:46 54.16159 -0.76084 5010 ft 160 kts
2026-05-04 14:46 54.17260 -0.75844 5012 ft 160 kts
2026-05-04 14:47 54.18368 -0.75605 4962 ft 162 kts
2026-05-04 14:47 54.19472 -0.75365 4836 ft 159 kts
2026-05-04 14:47 54.20557 -0.75132 4709 ft 157 kts
2026-05-04 14:47 54.21638 -0.74899 4580 ft 156 kts
2026-05-04 14:48 54.22707 -0.74669 4481 ft 154 kts
2026-05-04 14:48 54.23742 -0.74446 4466 ft 147 kts
2026-05-04 14:48 54.24720 -0.74234 4463 ft 142 kts
2026-05-04 14:48 54.25685 -0.74027 4464 ft 138 kts
2026-05-04 14:49 54.26628 -0.73823 4463 ft 136 kts
2026-05-04 14:49 54.27542 -0.73626 4464 ft 131 kts
2026-05-04 14:49 54.28444 -0.73430 4465 ft 129 kts
2026-05-04 14:49 54.29323 -0.73240 4467 ft 127 kts
2026-05-04 14:50 54.30190 -0.73053 4468 ft 126 kts
2026-05-04 14:50 54.31050 -0.72866 4466 ft 124 kts
2026-05-04 14:50 54.31891 -0.72685 4462 ft 123 kts
2026-05-04 14:50 54.32736 -0.72504 4464 ft 123 kts
2026-05-04 14:51 54.33560 -0.72159 4466 ft 124 kts 21°
2026-05-04 14:51 54.34336 -0.71492 4465 ft 125 kts 24°
2026-05-04 14:51 54.35101 -0.70803 4467 ft 125 kts 24°
2026-05-04 14:51 54.35868 -0.70107 4469 ft 126 kts 24°
2026-05-04 14:52 54.36635 -0.69409 4466 ft 126 kts 24°
2026-05-04 14:52 54.37403 -0.68710 4467 ft 126 kts 24°
2026-05-04 14:52 54.38170 -0.68011 4468 ft 125 kts 24°
2026-05-04 14:52 54.38935 -0.67312 4470 ft 126 kts 27°
2026-05-04 14:53 54.39487 -0.66140 4472 ft 129 kts 62°
2026-05-04 14:53 54.39839 -0.64728 4468 ft 130 kts 65°
2026-05-04 14:53 54.40380 -0.63643 4463 ft 121 kts
2026-05-04 14:53 54.40945 -0.64361 4486 ft 111 kts 276°
2026-05-04 14:54 54.40609 -0.65513 4487 ft 116 kts 225°
2026-05-04 14:54 54.39988 -0.66403 4471 ft 117 kts 227°
2026-05-04 14:54 54.39347 -0.67260 4470 ft 119 kts 213°
2026-05-04 14:54 54.38623 -0.67968 4467 ft 119 kts 212°
2026-05-04 14:55 54.37900 -0.68653 4468 ft 120 kts 211°
2026-05-04 14:55 54.37169 -0.69339 4468 ft 120 kts 211°
2026-05-04 14:55 54.36438 -0.70018 4470 ft 121 kts 211°
2026-05-04 14:55 54.35700 -0.70698 4466 ft 121 kts 211°
2026-05-04 14:56 54.34961 -0.71378 4465 ft 121 kts 211°
2026-05-04 14:56 54.34221 -0.72062 4467 ft 122 kts 211°
2026-05-04 14:56 54.33478 -0.72733 4465 ft 123 kts 205°
2026-05-04 14:56 54.32626 -0.72769 4471 ft 126 kts 173°
2026-05-04 14:57 54.31765 -0.72486 4472 ft 127 kts 171°
2026-05-04 14:57 54.30900 -0.72195 4467 ft 127 kts 178°
2026-05-04 14:57 54.30253 -0.72912 4465 ft 116 kts 259°
2026-05-04 14:57 54.30683 -0.73809 4513 ft 111 kts 346°
2026-05-04 14:58 54.31468 -0.73966 4479 ft 117 kts 353°
2026-05-04 14:58 54.32291 -0.73889 4463 ft 121 kts 14°
2026-05-04 14:58 54.33066 -0.73344 4468 ft 123 kts 20°
2026-05-04 14:58 54.33841 -0.72728 4468 ft 124 kts 22°
2026-05-04 14:59 54.34613 -0.72085 4469 ft 124 kts 22°
2026-05-04 14:59 54.35385 -0.71423 4468 ft 125 kts 23°
2026-05-04 14:59 54.36928 -0.70067 4467 ft 125 kts 24°
2026-05-04 15:00 54.37701 -0.69376 4466 ft 125 kts 24°
2026-05-04 15:00 54.38471 -0.68695 4466 ft 125 kts 24°
2026-05-04 15:00 54.39211 -0.67936 4462 ft 127 kts 43°
2026-05-04 15:01 54.39941 -0.65161 4465 ft 129 kts 58°
2026-05-04 15:01 54.40621 -0.64438 4457 ft 117 kts 334°
2026-05-04 15:01 54.40784 -0.65535 4509 ft 108 kts 252°
2026-05-04 15:01 54.40342 -0.66627 4476 ft 114 kts 237°
2026-05-04 15:02 54.39816 -0.67638 4469 ft 118 kts 216°
2026-05-04 15:02 54.39118 -0.68376 4464 ft 119 kts 213°
2026-05-04 15:02 54.38401 -0.69091 4465 ft 120 kts 212°
2026-05-04 15:02 54.37673 -0.69794 4474 ft 121 kts 212°
2026-05-04 15:03 54.36939 -0.70492 4476 ft 122 kts 212°
2026-05-04 15:03 54.36201 -0.71185 4477 ft 122 kts 212°
2026-05-04 15:03 54.35466 -0.71870 4480 ft 121 kts 211°
2026-05-04 15:03 54.34727 -0.72557 4482 ft 121 kts 211°
2026-05-04 15:04 54.33986 -0.73241 4487 ft 121 kts 211°
2026-05-04 15:04 54.33230 -0.73874 4479 ft 124 kts 196°
2026-05-04 15:04 54.32367 -0.73775 4488 ft 127 kts 172°
2026-05-04 15:04 54.31500 -0.73605 4478 ft 124 kts 196°
2026-05-04 15:05 54.31068 -0.74628 4477 ft 115 kts 280°
2026-05-04 15:05 54.31623 -0.75456 4465 ft 123 kts 11°
2026-05-04 15:05 54.32378 -0.74847 4503 ft 122 kts 18°
2026-05-04 15:05 54.33161 -0.74255 4490 ft 125 kts 22°
2026-05-04 15:06 54.33949 -0.73609 4488 ft 127 kts 21°
2026-05-04 15:06 54.34740 -0.72948 4487 ft 127 kts 22°
2026-05-04 15:06 54.35520 -0.72277 4487 ft 128 kts 23°
2026-05-04 15:07 54.37111 -0.70876 4478 ft 129 kts 24°
2026-05-04 15:07 54.37906 -0.70166 4472 ft 129 kts 24°
2026-05-04 15:07 54.38705 -0.69469 4466 ft 129 kts 24°
2026-05-04 15:07 54.39301 -0.68349 4470 ft 132 kts 65°
2026-05-04 15:08 54.39602 -0.66872 4473 ft 133 kts 70°
2026-05-04 15:08 54.39876 -0.65365 4471 ft 133 kts 69°
2026-05-04 15:08 54.40492 -0.64463 4469 ft 121 kts 350°
2026-05-04 15:08 54.40924 -0.65459 4542 ft 109 kts 281°
2026-05-04 15:09 54.40764 -0.66762 4484 ft 117 kts 244°
2026-05-04 15:09 54.40334 -0.67962 4471 ft 120 kts 239°
2026-05-04 15:09 54.39880 -0.69153 4462 ft 120 kts 239°
2026-05-04 15:10 54.38986 -0.71557 4464 ft 120 kts 248°
2026-05-04 15:10 54.39008 -0.72921 4467 ft 118 kts 295°
2026-05-04 15:10 54.40457 -0.73694 4467 ft 127 kts 21°
2026-05-04 15:11 54.41205 -0.72889 4463 ft 129 kts 39°
2026-05-04 15:11 54.41607 -0.71519 4467 ft 132 kts 75°
2026-05-04 15:11 54.41737 -0.69986 4458 ft 134 kts 92°
2026-05-04 15:11 54.41495 -0.68477 4470 ft 132 kts 118°
2026-05-04 15:12 54.40861 -0.67607 4402 ft 125 kts 207°
2026-05-04 15:12 54.40244 -0.68439 4490 ft 117 kts 213°
2026-05-04 15:12 54.39526 -0.69130 4471 ft 120 kts 212°
2026-05-04 15:12 54.38790 -0.69817 4469 ft 122 kts 211°
2026-05-04 15:13 54.38047 -0.70506 4470 ft 123 kts 211°
2026-05-04 15:13 54.37297 -0.71196 4467 ft 123 kts 211°
2026-05-04 15:13 54.36559 -0.71876 4466 ft 123 kts 211°
2026-05-04 15:13 54.35805 -0.72567 4468 ft 124 kts 211°
2026-05-04 15:14 54.35044 -0.73263 4465 ft 124 kts 210°
2026-05-04 15:14 54.34288 -0.73955 4467 ft 124 kts 210°
2026-05-04 15:14 54.33538 -0.74627 4464 ft 124 kts 206°
2026-05-04 15:14 54.32676 -0.74684 4470 ft 127 kts 173°
2026-05-04 15:15 54.31804 -0.74416 4468 ft 128 kts 177°
2026-05-04 15:15 54.31201 -0.75107 4458 ft 114 kts 281°
2026-05-04 15:15 54.31794 -0.75778 4504 ft 114 kts 355°
2026-05-04 15:16 54.33388 -0.75077 4469 ft 124 kts 21°
2026-05-04 15:16 54.34164 -0.74434 4468 ft 125 kts 22°
2026-05-04 15:16 54.35700 -0.73111 4469 ft 126 kts 24°
2026-05-04 15:17 54.36479 -0.72421 4467 ft 127 kts 24°
2026-05-04 15:17 54.38046 -0.71022 4467 ft 127 kts 24°
2026-05-04 15:17 54.38827 -0.70319 4466 ft 127 kts 24°
2026-05-04 15:18 54.39518 -0.69385 4460 ft 131 kts 57°
2026-05-04 15:18 54.39811 -0.67915 4473 ft 132 kts 73°
2026-05-04 15:18 54.40071 -0.66413 4460 ft 131 kts 54°
2026-05-04 15:19 54.41271 -0.67125 4472 ft 115 kts 279°
2026-05-04 15:19 54.41017 -0.68401 4477 ft 119 kts 231°
2026-05-04 15:19 54.39619 -0.69967 4465 ft 123 kts 212°
2026-05-04 15:20 54.38870 -0.70680 4464 ft 123 kts 212°
2026-05-04 15:20 54.38122 -0.71383 4462 ft 124 kts 211°
2026-05-04 15:20 54.37368 -0.72085 4462 ft 124 kts 211°
2026-05-04 15:20 54.36613 -0.72783 4460 ft 124 kts 211°
2026-05-04 15:21 54.35853 -0.73484 4460 ft 124 kts 211°
2026-05-04 15:21 54.35097 -0.74179 4460 ft 124 kts 211°
2026-05-04 15:21 54.33588 -0.75551 4458 ft 124 kts 207°
2026-05-04 15:22 54.32733 -0.75557 4462 ft 130 kts 159°
2026-05-04 15:22 54.31940 -0.74924 4421 ft 126 kts 202°
2026-05-04 15:22 54.32833 -0.75597 4511 ft 110 kts
2026-05-04 15:23 54.33617 -0.75472 4479 ft 117 kts
2026-05-04 15:23 54.34406 -0.75070 4465 ft 119 kts
2026-05-04 15:23 54.35176 -0.74528 4473 ft 122 kts 22°
2026-05-04 15:23 54.35931 -0.73875 4474 ft 123 kts 23°
2026-05-04 15:24 54.37460 -0.72513 4471 ft 126 kts 24°
2026-05-04 15:24 54.39004 -0.71125 4462 ft 127 kts 23°
2026-05-04 15:25 54.39780 -0.70420 4458 ft 128 kts 29°
2026-05-04 15:25 54.40329 -0.69219 4461 ft 131 kts 58°
2026-05-04 15:25 54.40754 -0.67844 4460 ft 131 kts 55°
2026-05-04 15:26 54.41598 -0.68920 4468 ft 115 kts 256°
2026-05-04 15:26 54.41110 -0.70019 4465 ft 119 kts 224°
2026-05-04 15:26 54.39730 -0.71606 4457 ft 122 kts 212°
2026-05-04 15:27 54.38980 -0.72294 4458 ft 123 kts 210°
2026-05-04 15:27 54.37426 -0.73539 4454 ft 124 kts 206°
2026-05-04 15:28 54.35839 -0.74698 4456 ft 124 kts 206°
2026-05-04 15:28 54.35021 -0.75161 4429 ft 128 kts 192°
2026-05-04 15:28 54.33091 -0.75608 4211 ft 151 kts 189°
2026-05-04 15:29 54.32034 -0.75827 4092 ft 157 kts 189°
2026-05-04 15:30 54.27774 -0.76657 4002 ft 154 kts 188°
2026-05-04 15:30 54.24499 -0.77281 4004 ft 162 kts 188°
2026-05-04 15:31 54.22271 -0.77707 4003 ft 163 kts 188°
2026-05-04 15:31 54.21167 -0.77915 4005 ft 163 kts 188°
2026-05-04 15:32 54.17801 -0.78551 4002 ft 163 kts 188°
2026-05-04 15:32 54.15559 -0.78973 4002 ft 163 kts 188°
2026-05-04 15:33 54.13315 -0.79394 4004 ft 164 kts 188°
2026-05-04 15:34 54.09931 -0.80034 4004 ft 164 kts 188°
2026-05-04 15:34 54.08804 -0.80248 4006 ft 164 kts 187°
2026-05-04 15:34 54.06574 -0.80667 4005 ft 163 kts 188°
2026-05-04 15:35 54.04321 -0.81086 4003 ft 163 kts 187°
2026-05-04 15:35 54.03202 -0.81297 4007 ft 163 kts 187°
2026-05-04 15:35 54.02083 -0.81508 4007 ft 163 kts 187°
2026-05-04 15:36 53.99838 -0.81928 4008 ft 164 kts 187°
2026-05-04 15:36 53.98756 -0.82130 4007 ft 164 kts 187°
2026-05-04 15:36 53.97593 -0.82347 4008 ft 164 kts 187°
2026-05-04 15:37 53.96461 -0.82557 4008 ft 165 kts 187°
2026-05-04 15:37 53.95318 -0.82770 3906 ft 170 kts 187°
2026-05-04 15:37 53.94141 -0.82989 3786 ft 174 kts 188°
2026-05-04 15:37 53.92935 -0.83216 3665 ft 176 kts 187°
2026-05-04 15:38 53.91732 -0.83442 3543 ft 177 kts 187°
2026-05-04 15:38 53.90513 -0.83670 3416 ft 177 kts 188°
2026-05-04 15:38 53.89312 -0.83897 3291 ft 177 kts 187°
2026-05-04 15:38 53.88301 -0.84088 3187 ft 177 kts 187°
2026-05-04 15:39 53.86954 -0.84339 3052 ft 176 kts 187°
2026-05-04 15:39 53.85733 -0.84563 2916 ft 176 kts 187°
2026-05-04 15:39 53.83364 -0.85000 2665 ft 176 kts 187°
2026-05-04 15:40 53.82150 -0.85222 2539 ft 176 kts 187°
2026-05-04 15:40 53.80974 -0.85440 2473 ft 173 kts 187°
2026-05-04 15:40 53.79785 -0.85661 2463 ft 169 kts 187°
2026-05-04 15:40 53.78633 -0.85874 2461 ft 166 kts 187°
2026-05-04 15:41 53.77547 -0.86075 2461 ft 164 kts 187°
2026-05-04 15:41 53.76411 -0.86286 2463 ft 163 kts 187°
2026-05-04 15:41 53.75289 -0.86495 2465 ft 162 kts 187°
2026-05-04 15:41 53.74208 -0.86695 2464 ft 162 kts 187°
2026-05-04 15:42 53.73079 -0.86905 2464 ft 162 kts 187°
2026-05-04 15:42 53.71971 -0.87111 2464 ft 162 kts 187°
2026-05-04 15:42 53.70871 -0.87314 2464 ft 162 kts 187°
2026-05-04 15:42 53.69752 -0.87520 2464 ft 162 kts 187°
2026-05-04 15:43 53.68634 -0.87726 2464 ft 162 kts 187°
2026-05-04 15:43 53.67518 -0.87932 2464 ft 162 kts 187°
2026-05-04 15:43 53.66402 -0.88138 2466 ft 162 kts 187°
2026-05-04 15:43 53.65298 -0.88340 2466 ft 162 kts 187°
2026-05-04 15:44 53.64182 -0.88545 2465 ft 162 kts 187°
2026-05-04 15:44 53.63063 -0.88751 2464 ft 162 kts 187°
2026-05-04 15:44 53.61949 -0.88956 2464 ft 163 kts 187°
2026-05-04 15:44 53.60829 -0.89161 2464 ft 163 kts 187°
2026-05-04 15:45 53.59705 -0.89368 2465 ft 163 kts 187°
2026-05-04 15:45 53.58590 -0.89573 2465 ft 163 kts 187°
2026-05-04 15:45 53.57456 -0.89781 2464 ft 163 kts 187°
2026-05-04 15:45 53.56342 -0.89985 2465 ft 163 kts 187°
2026-05-04 15:46 53.55238 -0.90187 2464 ft 163 kts 187°
2026-05-04 15:46 53.54119 -0.90392 2465 ft 163 kts 187°
2026-05-04 15:46 53.52999 -0.90597 2464 ft 163 kts 187°
2026-05-04 15:46 53.51915 -0.90796 2464 ft 163 kts 187°
2026-05-04 15:47 53.50792 -0.91003 2465 ft 163 kts 187°
2026-05-04 15:47 53.49661 -0.91208 2466 ft 163 kts 187°
2026-05-04 15:47 53.48542 -0.91413 2465 ft 164 kts 187°
2026-05-04 15:47 53.47410 -0.91620 2463 ft 164 kts 186°
2026-05-04 15:48 53.46281 -0.91824 2463 ft 164 kts 187°
2026-05-04 15:48 53.45154 -0.92029 2464 ft 164 kts 187°
2026-05-04 15:48 53.42902 -0.92441 2420 ft 164 kts 187°
2026-05-04 15:49 53.41782 -0.92648 2287 ft 159 kts 186°
2026-05-04 15:49 53.40699 -0.92842 2159 ft 156 kts 187°
2026-05-04 15:49 53.39639 -0.93030 2031 ft 154 kts 186°
2026-05-04 15:49 53.38595 -0.93210 1906 ft 153 kts 186°
2026-05-04 15:50 53.37550 -0.93425 1777 ft 151 kts 191°
2026-05-04 15:50 53.36552 -0.93788 1644 ft 146 kts 194°
2026-05-04 15:50 53.35578 -0.94195 1513 ft 143 kts 195°
2026-05-04 15:50 53.34647 -0.94772 1383 ft 141 kts 204°
2026-05-04 15:51 53.33777 -0.95412 1327 ft 127 kts 205°
2026-05-04 15:51 53.33004 -0.95984 1189 ft 118 kts 204°
2026-05-04 15:51 53.32274 -0.96524 1078 ft 111 kts 204°
2026-05-04 15:51 53.31586 -0.97031 1066 ft 110 kts 205°
2026-05-04 15:52 53.30890 -0.97544 1059 ft 107 kts 204°
2026-05-04 15:52 53.30245 -0.98023 1053 ft 98 kts 204°
2026-05-04 15:52 53.29635 -0.98471 1055 ft 93 kts 205°
2026-05-04 15:52 53.29051 -0.98903 1059 ft 91 kts 204°
2026-05-04 15:53 53.28480 -0.99329 1063 ft 91 kts 205°
2026-05-04 15:53 53.27897 -0.99765 1065 ft 93 kts 204°
2026-05-04 15:53 53.27305 -1.00189 1066 ft 93 kts 193°
2026-05-04 15:53 53.26797 -0.99700 1009 ft 94 kts 120°
2026-05-04 15:54 53.26496 -0.98729 909 ft 92 kts 112°
2026-05-04 15:54 53.26244 -0.97757 784 ft 91 kts 107°
2026-05-04 15:54 53.26242 -0.96747 669 ft 86 kts 69°
2026-05-04 15:54 53.26741 -0.96161 407 ft 94 kts 23°
2026-05-04 15:55 53.27340 -0.95718 188 ft 96 kts 19°
2026-05-04 15:55 53.27892 -0.95298 93 ft 72 kts 14°
2026-05-04 15:55 53.28253 -0.95012 93 ft 47 kts 27°
2026-05-04 15:55 53.28485 -0.94823 90 ft 21 kts 15°
2026-05-04 15:56 53.28466 -0.94819 90 ft 10 kts 206°
2026-05-04 15:56 53.28360 -0.94897 93 ft 23 kts 205°
2026-05-04 15:56 53.28194 -0.95030 94 ft 24 kts 203°
2026-05-04 15:56 53.28067 -0.95129 94 ft 19 kts 207°
2026-05-04 15:57 53.27932 -0.95165 94 ft 17 kts 134°
2026-05-04 15:57 53.27884 -0.95091 93 ft 0 kts 199°